Weather History for Alamogordo, NM

Change the Weather History Date:

Tuesday, February 26, 2013

  Actual Average Record
Temperature  
Mean Temperature 45 °F -  
Max Temperature 66 °F 63 °F 81 °F (1986)
Min Temperature 24 °F 35 °F 20 °F (1952)
Degree Days  
Heating Degree Days 20    
Moisture  
Dew Point 3 °F    
Average Humidity 21    
Maximum Humidity 43    
Minimum Humidity 6    
Precipitation  
Precipitation 0.00 in - - ()
Sea Level Pressure  
Sea Level Pressure 29.92 in    
Wind  
Wind Speed 8 mph (South)    
Max Wind Speed 32 mph    
Max Gust Speed 38 mph    
Visibility 10 miles    
Events      
Averages and records for this station are not official NWS values.
T = Trace of Precipitation, MM = Missing Value Source: NWS Daily Summary

Daily Weather History Graph

Daily Weather History Graph

Search for Another Location

Airport:

Trip Planner

Search our weather history database for the weather conditions in past years. The results will help you decide how hot, cold, wet, or windy it might be!

Date:

Astronomy

Feb. 26, 2013 Rise Set
Actual Time 6:34 AM MST 5:59 PM MST
Civil Twilight 6:10 AM MST 6:23 PM MST
Nautical Twilight 5:41 AM MST 6:52 PM MST
Astronomical Twilight 5:12 AM MST 7:21 PM MST
Moon 7:11 PM MST (2/26) 6:44 AM MST (2/26)
Length of Visible Light 12h 13m
Length of Day
11h 24m
Full, 99% of the Moon is Illuminated
Feb 26
Full
Mar 4
Last Quarter
Mar 11
New
Mar 19
First Quarter
Mar 27
Full

Hourly Weather History & Observations

Time (MST) Temp. Windchill Dew Point Humidity Pressure Visibility Wind Dir Wind Speed Gust Speed Precip Events Conditions
12:15 AM 35.6 °F - 5.0 °F 28% 29.96 in 10.0 mi Calm Calm - N/A   Clear
12:35 AM 35.6 °F 30.7 °F 5.0 °F 28% 29.96 in 10.0 mi SW 5.8 mph - N/A   Clear
12:55 AM 32.0 °F 26.4 °F 5.0 °F 32% 29.96 in 10.0 mi SSW 5.8 mph - N/A   Clear
1:15 AM 32.0 °F 27.5 °F 5.0 °F 32% 29.96 in 10.0 mi SE 4.6 mph - N/A   Clear
1:35 AM 30.2 °F 26.7 °F 5.0 °F 34% 29.97 in 10.0 mi ESE 3.5 mph - N/A   Clear
1:55 AM 32.0 °F - 5.0 °F 32% 29.96 in 10.0 mi Calm Calm - N/A   Clear
2:15 AM 28.4 °F - 1.4 °F 31% 29.96 in 10.0 mi Calm Calm - N/A   Clear
2:35 AM 26.6 °F - 1.4 °F 34% 29.96 in 10.0 mi Calm Calm - N/A   Clear
2:55 AM 32.0 °F - 3.2 °F 30% 29.95 in 10.0 mi Calm Calm - N/A   Clear
3:15 AM 32.0 °F 28.7 °F 5.0 °F 32% 29.94 in 10.0 mi SSE 3.5 mph - N/A   Clear
3:35 AM 32.0 °F 25.6 °F 5.0 °F 32% 29.94 in 10.0 mi SE 6.9 mph - N/A   Clear
3:55 AM 30.2 °F 25.4 °F 5.0 °F 34% 29.93 in 10.0 mi SE 4.6 mph - N/A   Clear
4:15 AM 30.2 °F 22.6 °F 5.0 °F 34% 29.93 in 10.0 mi SSE 8.1 mph - N/A   Clear
4:55 AM 28.4 °F 22.2 °F 5.0 °F 37% 29.93 in 10.0 mi SE 5.8 mph - N/A   Clear
5:15 AM 28.4 °F 21.2 °F 5.0 °F 37% 29.93 in 10.0 mi SSE 6.9 mph - N/A   Clear
5:35 AM 26.6 °F 20.0 °F 5.0 °F 40% 29.94 in 10.0 mi SE 5.8 mph - N/A   Clear
5:55 AM 28.4 °F 24.6 °F 5.0 °F 37% 29.94 in 10.0 mi South 3.5 mph - N/A   Clear
6:15 AM 28.4 °F 23.3 °F 5.0 °F 37% 29.95 in 10.0 mi SE 4.6 mph - N/A   Clear
6:35 AM 24.8 °F 19.1 °F 3.2 °F 40% 29.95 in 10.0 mi SE 4.6 mph - N/A   Clear
6:55 AM 24.8 °F 16.9 °F 5.0 °F 43% 29.95 in 10.0 mi SSE 6.9 mph - N/A   Clear
7:15 AM 24.8 °F 19.1 °F 3.2 °F 40% 29.95 in 10.0 mi SE 4.6 mph - N/A   Clear
7:35 AM 30.2 °F 26.7 °F 8.6 °F 40% 29.95 in 10.0 mi SE 3.5 mph - N/A   Clear
7:55 AM 32.0 °F 27.5 °F 6.8 °F 35% 29.95 in 10.0 mi SE 4.6 mph - N/A   Clear
8:15 AM 35.6 °F 29.9 °F 8.6 °F 33% 29.95 in 10.0 mi SSE 6.9 mph - N/A   Clear
8:35 AM 37.4 °F 32.1 °F 8.6 °F 30% 29.95 in 10.0 mi South 6.9 mph - N/A   Clear
8:55 AM 39.2 °F 35.9 °F 6.8 °F 26% 29.96 in 10.0 mi SW 4.6 mph - N/A   Clear
9:15 AM 39.2 °F 34.2 °F 6.8 °F 26% 29.95 in 10.0 mi South 6.9 mph - N/A   Clear
9:55 AM 44.6 °F 43.1 °F 8.6 °F 23% 29.95 in 10.0 mi SW 3.5 mph - N/A   Clear
10:15 AM 46.4 °F 44.3 °F 6.8 °F 20% 29.94 in 10.0 mi SW 4.6 mph - N/A   Clear
10:35 AM 48.2 °F - 6.8 °F 19% 29.93 in 10.0 mi South 4.6 mph - N/A   Clear
10:55 AM 50.0 °F - 6.8 °F 17% 29.92 in 10.0 mi South 5.8 mph - N/A   Clear
11:15 AM 51.8 °F - 8.6 °F 18% 29.91 in 10.0 mi South 5.8 mph - N/A   Clear
11:55 AM 55.4 °F - 6.8 °F 14% 29.89 in 9.0 mi SSW 8.1 mph - N/A   Clear
12:15 PM 55.4 °F - 6.8 °F 14% 29.88 in 9.0 mi SSW 6.9 mph - N/A   Clear
12:35 PM 55.4 °F - 5.0 °F 13% 29.87 in 10.0 mi SSW 5.8 mph - N/A   Clear
12:55 PM 57.2 °F - 5.0 °F 12% 29.86 in 10.0 mi South 5.8 mph - N/A   Clear
1:15 PM 57.2 °F - 1.4 °F 10% 29.85 in 10.0 mi South 8.1 mph - N/A   Clear
1:35 PM 59.0 °F - 1.4 °F 10% 29.84 in 10.0 mi SSW 6.9 mph - N/A   Clear
1:55 PM 59.0 °F - 1.4 °F 10% 29.83 in 10.0 mi WSW 8.1 mph - N/A   Clear
2:15 PM 59.0 °F - 3.2 °F 11% 29.82 in 10.0 mi South 8.1 mph - N/A   Clear
2:35 PM 60.8 °F - 3.2 °F 10% 29.81 in 7.0 mi SSW 11.5 mph - N/A   Clear
2:55 PM 62.6 °F - 3.2 °F 9% 29.80 in 10.0 mi SSE 15.0 mph 20.7 mph N/A   Clear
3:15 PM 62.6 °F - 3.2 °F 9% 29.79 in 10.0 mi South 13.8 mph 20.7 mph N/A   Clear
3:35 PM 62.6 °F - 3.2 °F 9% 29.78 in 10.0 mi South 9.2 mph 16.1 mph N/A   Clear
3:55 PM 62.6 °F - 1.4 °F 9% 29.76 in 10.0 mi SW 9.2 mph - N/A   Clear
4:15 PM 66.2 °F - -2.2 °F 6% 29.76 in 9.0 mi West 18.4 mph 26.5 mph N/A   Clear
4:35 PM 64.4 °F - -4.0 °F 6% 29.76 in 10.0 mi WSW 20.7 mph 25.3 mph N/A   Clear
4:55 PM 64.4 °F - -2.2 °F 7% 29.76 in 10.0 mi West 17.3 mph 28.8 mph N/A   Clear
5:15 PM 62.6 °F - -0.4 °F 8% 29.76 in 10.0 mi West 19.6 mph 29.9 mph N/A   Clear
5:35 PM 60.8 °F - -0.4 °F 8% 29.78 in 5.0 mi West 17.3 mph 23.0 mph N/A   Haze
5:55 PM 55.4 °F - 5.0 °F 13% 29.81 in 5.0 mi North 32.2 mph 38.0 mph N/A   Haze
6:15 PM 53.6 °F - 1.4 °F 12% 29.84 in 9.0 mi North 25.3 mph 38.0 mph N/A   Clear
6:35 PM 51.8 °F - -0.4 °F 12% 29.86 in 10.0 mi North 23.0 mph 31.1 mph N/A   Clear
6:55 PM 50.0 °F - -0.4 °F 13% 29.89 in 10.0 mi North 26.5 mph 35.7 mph N/A   Clear
7:15 PM 50.0 °F - -0.4 °F 13% 29.91 in 10.0 mi North 24.2 mph 32.2 mph N/A   Clear
7:35 PM 48.2 °F - -0.4 °F 13% 29.93 in 10.0 mi North 20.7 mph 26.5 mph N/A   Clear
7:55 PM 48.2 °F - -0.4 °F 13% 29.94 in 10.0 mi North 20.7 mph - N/A   Clear
8:15 PM 46.4 °F 39.2 °F -0.4 °F 14% 29.95 in 10.0 mi North 18.4 mph 28.8 mph N/A   Clear
8:55 PM 44.6 °F 37.8 °F -2.2 °F 14% 29.99 in 10.0 mi North 15.0 mph - N/A   Clear
9:15 PM 44.6 °F 37.4 °F -0.4 °F 15% 30.00 in 10.0 mi North 16.1 mph - N/A   Clear
9:35 PM 44.6 °F 36.9 °F -2.2 °F 14% 30.01 in 10.0 mi North 18.4 mph 24.2 mph N/A   Clear
9:55 PM 44.6 °F 37.4 °F -2.2 °F 14% 30.02 in 10.0 mi NNE 16.1 mph 21.9 mph N/A   Clear
10:15 PM 42.8 °F 34.3 °F -2.2 °F 15% 30.03 in 10.0 mi North 19.6 mph 25.3 mph N/A   Clear
10:35 PM 41.0 °F 31.9 °F -4.0 °F 15% 30.05 in 10.0 mi NNE 19.6 mph - N/A   Clear
10:55 PM 41.0 °F 32.8 °F -5.8 °F 14% 30.06 in 10.0 mi NNE 16.1 mph 25.3 mph N/A   Clear
11:15 PM 41.0 °F 31.1 °F -7.6 °F 13% 30.07 in 10.0 mi NNE 23.0 mph 26.5 mph N/A   Clear
11:35 PM 41.0 °F 32.2 °F -5.8 °F 14% 30.08 in 10.0 mi NNE 18.4 mph 26.5 mph N/A   Clear
11:55 PM 41.0 °F 30.9 °F -7.6 °F 13% 30.08 in 10.0 mi North 24.2 mph 31.1 mph N/A   Clear